Showing default

HYSIS, 43719

Orbit data source: Space-Track

HYSIS, 43719 is a payload satellite owned by ISRO (IN) in SSO that was launched on Thu, 29 Nov 2018 UTC via a PSLV launch vehicle from the Sirharikota (SRI). Payload-class satellites include a variety of spacecraft equipped with specific instruments for various scientific and technological missions. These include communications satellites like Starlink; space stations such as the ISS; scientific satellites like the Hubble; Earth observation satellites from companies like Planet Labs, Umbra, and HawkEye 360; GPS; miniature CubeSats for education and research; and military/defense satellites.

Loading next visibility...
Identifier
43719, 2018-096A
Orbit
SSO
Last TLE update
4 hours ago
Origin
Manufacturer
ISRO
Mission
Operational Civil Imaging
Bus & Motor
SSB-2, AOCS
Mass
380 kg wet, ~350 kg dry
Launch date (UTC)
2018-11-29 (7 years ago)
Launch vehicle
PSLV
Launch site
Sirharikota (SRI)
Object type
Payload
Rocket body
Debris
Shape & HBR
Box + 2 Pan, 6 m
Radar Cross Section
4.485 m², Large (>1 m²)

Expand to show TLE details & history

TLE from 4 hours ago
0 HYSIS
1 43719U 18096A   25184.50355881  .00000934  13819-9  12773-3 0  9993
2 43719  98.0297 248.0569 0001683 125.1039 235.0329 14.78627589356492
Epoch: 2025-07-03T12:05Z
TLE epoch observation values (Epoch: 2025-07-03T12:05:07.481Z)
Latitude
-0.00008°
Longitude
145.00637°
Altitude
637.352 km
Speed
7.539 km/s
True Right ascension
16h 32m 13s
True Declination
0° 00' 00"
Sunlit
Object was in full shadow at epoch
Visualization orbit readout
Latitude
-5.77782°
Longitude
-35.63729°
Altitude
637.036 km
Speed
7.54 km/s
Apparent Right ascension
05h 40m 57s
Apparent Declination
-64° 53' 31"
Sunlit
Object is in daylight
Visualization observer readout
Local Sidereal Time
03:57:30
Azimuth
168.855° S
Elevation
-16.749°
Doppler factor
1
Orbital elements
Apogee altitude
631.888 km
Perigee altitude
629.528 km
Semi-major axis
7,008.845 km
Eccentricity
0.00017
Inclination
98.0297°
RAAN
248.0569°
Arg. of periapsis
125.1039°
True anomaly
Unknown
Mean anomaly
235.0329°
Eccentric anomaly
Unknown
Mean motion
3.69891 °/min
Orbital period
97.33 mins
BSTAR
0.00012773
Loading maneuver chart data...
Loading SW <> Apogee altitude chart data...

HYSIS Visibility forecast

Observer location: undefined°, undefined°

Span
Click to sort rows by Start time (UTC) header in descending order
Start Az.
Max El. time (UTC)
Max El. Az.
Max El.
End time (UTC)
End Az.
7 mins2025-07-03 17:31:14.206Z359.771° N2025-07-03 17:35:14.206Z270.829° WNW37.095°2025-07-03 17:38:14.206Z215.672° SW
7 mins2025-07-04 04:27:14.206Z178.681° S2025-07-04 04:30:14.206Z246.718° WSW42.446°2025-07-04 04:34:14.206Z340.58° N
|